| time (UTC) | temp C | wind direction | speed KPH | gust KPH | rain 1hr cm | rain 24hr cm | rain mn cm | humidity % | barometer mb |
| 20260503023304 | 13 | 47 | 6.4 | 8.0 | 0.00 | 0.00 | 0.00 | 64 | 1007.4 |
| 20260503022806 | 13 | 49 | 4.8 | 9.7 | 0.00 | 0.00 | 0.00 | 63 | 1007.3 |
| 20260503022526 | 13 | 68 | 6.4 | 11.3 | 0.00 | 0.00 | 0.00 | 63 | 1007.2 |
| 20260503021805 | 13 | 75 | 6.4 | 14.5 | 0.00 | 0.00 | 0.00 | 62 | 1007.1 |
| 20260503021304 | 13 | 31 | 11.3 | 17.7 | 0.00 | 0.00 | 0.00 | 62 | 1007.1 |
| 20260503020803 | 13 | 78 | 9.7 | 17.7 | 0.00 | 0.00 | 0.00 | 61 | 1007.1 |
| 20260503020304 | 13 | 76 | 6.4 | 11.3 | 0.00 | 0.00 | 0.00 | 61 | 1007.5 |
| 20260503020030 | 14 | 39 | 8.0 | 16.1 | 0.00 | 0.00 | 0.00 | 59 | 1007.6 |
| 20260503015305 | 14 | 27 | 9.7 | 16.1 | 0.00 | 0.00 | 0.00 | 58 | 1007.5 |
| 20260503014803 | 14 | 20 | 8.0 | 14.5 | 0.00 | 0.00 | 0.00 | 57 | 1007.6 |
| 20260503014303 | 14 | 47 | 8.0 | 22.5 | 0.00 | 0.00 | 0.00 | 57 | 1007.5 |
| 20260503014022 | 14 | 31 | 9.7 | 22.5 | 0.00 | 0.00 | 0.00 | 56 | 1007.6 |
| 20260503013304 | 15 | 45 | 8.0 | 17.7 | 0.00 | 0.00 | 0.00 | 56 | 1007.6 |
| 20260503013244 | 15 | 0 | 4.8 | 17.7 | 0.00 | 0.00 | 0.00 | 56 | 1007.8 |
| 20260503012523 | 15 | 8 | 6.4 | 14.5 | 0.00 | 0.00 | 0.00 | 56 | 1007.6 |
| 20260503011805 | 15 | 41 | 8.0 | 16.1 | 0.00 | 0.00 | 0.00 | 57 | 1007.5 |
| 20260503011305 | 15 | 27 | 6.4 | 16.1 | 0.00 | 0.00 | 0.00 | 57 | 1007.6 |
| 20260503010805 | 15 | 324 | 6.4 | 14.5 | 0.00 | 0.00 | 0.00 | 57 | 1007.7 |
| 20260503010305 | 15 | 347 | 3.2 | 11.3 | 0.00 | 0.00 | 0.00 | 57 | 1007.6 |
| 20260503005805 | 15 | 320 | 4.8 | 11.3 | 0.00 | 0.00 | 0.00 | 56 | 1007.6 |
| 20260503005526 | 15 | 321 | 4.8 | 14.5 | 0.00 | 0.00 | 0.00 | 56 | 1007.5 |
| 20260503004805 | 15 | 307 | 8.0 | 14.5 | 0.00 | 0.00 | 0.00 | 56 | 1007.6 |
| 20260503004304 | 15 | 324 | 8.0 | 11.3 | 0.00 | 0.00 | 0.00 | 56 | 1007.5 |
| 20260503003804 | 15 | 316 | 8.0 | 16.1 | 0.00 | 0.00 | 0.00 | 56 | 1007.5 |
| 20260503003530 | 15 | 305 | 9.7 | 16.1 | 0.00 | 0.00 | 0.00 | 56 | 1007.5 |
| 20260503003028 | 15 | 296 | 6.4 | 14.5 | 0.00 | 0.00 | 0.00 | 56 | 1007.4 |
| 20260503002305 | 15 | 306 | 6.4 | 8.0 | 0.00 | 0.00 | 0.00 | 57 | 1007.2 |
| 20260503002028 | 15 | 289 | 4.8 | 9.7 | 0.00 | 0.00 | 0.00 | 57 | 1007.2 |
| 20260503001304 | 15 | 293 | 4.8 | 9.7 | 0.00 | 0.00 | 0.00 | 57 | 1007.2 |
| 20260503001029 | 15 | 282 | 3.2 | 4.8 | 0.00 | 0.00 | 0.00 | 56 | 1007.3 |
| 20260503000523 | 16 | 292 | 3.2 | 6.4 | 0.00 | 0.00 | 0.00 | 56 | 1007.2 |
| 20260502235804 | 16 | 282 | 3.2 | 6.4 | 0.00 | 0.00 | 0.00 | 56 | 1007.2 |
| 20260502235305 | 16 | 292 | 3.2 | 4.8 | 0.00 | 0.00 | 0.00 | 56 | 1007.2 |
| 20260502235024 | 16 | 281 | 1.6 | 6.4 | 0.00 | 0.00 | 0.00 | 55 | 1007.1 |
| 20260502234305 | 16 | 302 | 4.8 | 6.4 | 0.00 | 0.00 | 0.00 | 55 | 1007.1 |
| 20260502233804 | 16 | 281 | 4.8 | 8.0 | 0.00 | 0.00 | 0.00 | 55 | 1007.1 |
| 20260502233304 | 16 | 299 | 4.8 | 8.0 | 0.00 | 0.00 | 0.00 | 55 | 1007.1 |
| 20260502233030 | 16 | 278 | 1.6 | 4.8 | 0.00 | 0.00 | 0.00 | 55 | 1007.1 |
| 20260502232305 | 16 | 261 | 3.2 | 4.8 | 0.00 | 0.00 | 0.00 | 54 | 1007.1 |
| 20260502231804 | 16 | 278 | 3.2 | 6.4 | 0.00 | 0.00 | 0.00 | 54 | 1007.2 |
| 20260502231303 | 16 | 309 | 3.2 | 6.4 | 0.00 | 0.00 | 0.00 | 54 | 1007.2 |
| 20260502230804 | 16 | 283 | 3.2 | 4.8 | 0.00 | 0.00 | 0.00 | 54 | 1007.3 |
| 20260502230303 | 16 | 278 | 1.6 | 6.4 | 0.00 | 0.00 | 0.00 | 54 | 1007.2 |
| 20260502225805 | 16 | 275 | 1.6 | 8.0 | 0.00 | 0.00 | 0.00 | 54 | 1007.3 |
| 20260502225305 | 16 | 303 | 4.8 | 8.0 | 0.00 | 0.00 | 0.00 | 53 | 1007.3 |
| 20260502224805 | 17 | 303 | 4.8 | 9.7 | 0.00 | 0.00 | 0.00 | 53 | 1007.3 |
| 20260502224305 | 17 | 293 | 3.2 | 14.5 | 0.00 | 0.00 | 0.00 | 52 | 1007.3 |
| 20260502223805 | 17 | 282 | 8.0 | 14.5 | 0.00 | 0.00 | 0.00 | 52 | 1007.3 |
| 20260502223305 | 17 | 292 | 4.8 | 11.3 | 0.00 | 0.00 | 0.00 | 52 | 1007.4 |
| 20260502222805 | 17 | 288 | 6.4 | 11.3 | 0.00 | 0.00 | 0.00 | 52 | 1007.4 |
| 20260502222305 | 17 | 288 | 4.8 | 14.5 | 0.00 | 0.00 | 0.00 | 52 | 1007.4 |
| 20260502221803 | 17 | 299 | 8.0 | 14.5 | 0.00 | 0.00 | 0.00 | 51 | 1007.4 |
| 20260502221304 | 17 | 321 | 9.7 | 14.5 | 0.00 | 0.00 | 0.00 | 51 | 1007.4 |
| 20260502220804 | 17 | 282 | 6.4 | 17.7 | 0.00 | 0.00 | 0.00 | 51 | 1007.5 |
| 20260502220304 | 17 | 286 | 11.3 | 17.7 | 0.00 | 0.00 | 0.00 | 51 | 1007.4 |
| 20260502215804 | 17 | 306 | 6.4 | 22.5 | 0.00 | 0.00 | 0.00 | 51 | 1007.4 |
| 20260502215305 | 17 | 272 | 12.9 | 22.5 | 0.00 | 0.00 | 0.00 | 51 | 1007.5 |
| 20260502214804 | 17 | 327 | 6.4 | 17.7 | 0.00 | 0.00 | 0.00 | 51 | 1007.6 |
| 20260502214303 | 17 | 289 | 9.7 | 24.1 | 0.00 | 0.00 | 0.00 | 50 | 1007.7 |
| 20260502213803 | 17 | 292 | 14.5 | 24.1 | 0.00 | 0.00 | 0.00 | 51 | 1007.7 |
| 20260502213304 | 18 | 285 | 6.4 | 17.7 | 0.00 | 0.00 | 0.00 | 50 | 1007.7 |
| 20260502212803 | 18 | 298 | 8.0 | 17.7 | 0.00 | 0.00 | 0.00 | 50 | 1007.7 |
| 20260502212305 | 18 | 257 | 9.7 | 20.9 | 0.00 | 0.00 | 0.00 | 50 | 1007.7 |
| 20260502212025 | 18 | 307 | 11.3 | 24.1 | 0.00 | 0.00 | 0.00 | 49 | 1007.8 |
| 20260502211528 | 18 | 310 | 8.0 | 24.1 | 0.00 | 0.00 | 0.00 | 49 | 1007.8 |
| 20260502210803 | 18 | 300 | 12.9 | 20.9 | 0.00 | 0.00 | 0.00 | 49 | 1007.8 |
| 20260502210303 | 18 | 289 | 9.7 | 20.9 | 0.00 | 0.00 | 0.00 | 49 | 1007.8 |
| 20260502210026 | 17 | 310 | 8.0 | 17.7 | 0.00 | 0.00 | 0.00 | 50 | 1007.8 |
| 20260502205749 | 17 | 275 | 8.0 | 11.3 | 0.00 | 0.00 | 0.00 | 50 | 1007.9 |
| 20260502204803 | 17 | 269 | 6.4 | 11.3 | 0.00 | 0.00 | 0.00 | 51 | 1008.0 |
| 20260502204304 | 17 | 299 | 6.4 | 14.5 | 0.00 | 0.00 | 0.00 | 51 | 1008.0 |
| 20260502204242 | 17 | 290 | 8.0 | 14.5 | 0.00 | 0.00 | 0.00 | 52 | 1007.9 |
| 20260502203303 | 16 | 295 | 8.0 | 11.3 | 0.00 | 0.00 | 0.00 | 54 | 1008.0 |
| 20260502202804 | 15 | 290 | 8.0 | 11.3 | 0.00 | 0.00 | 0.00 | 59 | 1008.0 |
| 20260502202304 | 15 | 292 | 4.8 | 6.4 | 0.00 | 0.00 | 0.00 | 62 | 1008.0 |
| 20260502201803 | 14 | 302 | 0.0 | 3.2 | 0.00 | 0.00 | 0.00 | 64 | 1008.0 |
| 20260502201303 | 14 | 320 | 0.0 | 0.0 | 0.00 | 0.00 | 0.00 | 64 | 1008.0 |
| 20260502200803 | 13 | 320 | 0.0 | 0.0 | 0.00 | 0.00 | 0.00 | 65 | 1007.9 |
| 20260502200303 | 14 | 320 | 0.0 | 0.0 | 0.00 | 0.00 | 0.00 | 64 | 1007.9 |
| 20260502195804 | 14 | 320 | 0.0 | 0.0 | 0.00 | 0.00 | 0.00 | 64 | 1007.9 |
| 20260502195305 | 14 | 320 | 0.0 | 0.0 | 0.00 | 0.00 | 0.00 | 63 | 1007.9 |
| 20260502195026 | 14 | 320 | 0.0 | 0.0 | 0.00 | 0.00 | 0.00 | 63 | 1007.9 |
| 20260502194301 | 14 | 320 | 0.0 | 0.0 | 0.00 | 0.00 | 0.00 | 63 | 1007.9 |
| 20260502193759 | 15 | 320 | 0.0 | 3.2 | 0.00 | 0.00 | 0.00 | 62 | 1007.8 |
| 20260502193241 | 15 | 320 | 0.0 | 4.8 | 0.00 | 0.00 | 0.00 | 61 | 1007.8 |
| 20260502192741 | 15 | 336 | 1.6 | 4.8 | 0.00 | 0.00 | 0.00 | 61 | 1007.8 |
| 20260502192239 | 15 | 258 | 0.0 | 3.2 | 0.00 | 0.00 | 0.00 | 60 | 1007.7 |
| 20260502192006 | 15 | 259 | 0.0 | 3.2 | 0.00 | 0.00 | 0.00 | 59 | 1007.7 |
| 20260502191233 | 15 | 275 | 0.0 | 3.2 | 0.00 | 0.00 | 0.00 | 59 | 1007.6 |
| 20260502190949 | 16 | 221 | 0.0 | 1.6 | 0.00 | 0.00 | 0.00 | 58 | 1007.6 |
| 20260502190231 | 16 | 221 | 0.0 | 1.6 | 0.00 | 0.00 | 0.00 | 57 | 1007.6 |
| 20260502185732 | 16 | 220 | 1.6 | 6.4 | 0.00 | 0.00 | 0.00 | 57 | 1007.5 |
| 20260502185232 | 16 | 240 | 1.6 | 6.4 | 0.00 | 0.00 | 0.00 | 56 | 1007.5 |
| 20260502184733 | 16 | 235 | 1.6 | 4.8 | 0.00 | 0.00 | 0.00 | 56 | 1007.5 |
| 20260502184231 | 17 | 200 | 1.6 | 4.8 | 0.00 | 0.00 | 0.00 | 55 | 1007.5 |
| 20260502183733 | 17 | 210 | 1.6 | 4.8 | 0.00 | 0.00 | 0.00 | 55 | 1007.5 |
| 20260502183230 | 17 | 237 | 0.0 | 4.8 | 0.00 | 0.00 | 0.00 | 54 | 1007.5 |
| 20260502182731 | 17 | 203 | 1.6 | 4.8 | 0.00 | 0.00 | 0.00 | 53 | 1007.5 |
| 20260502182231 | 17 | 189 | 3.2 | 4.8 | 0.00 | 0.00 | 0.00 | 52 | 1007.5 |
| 20260502181730 | 18 | 204 | 1.6 | 6.4 | 0.00 | 0.00 | 0.00 | 52 | 1007.4 |
| 20260502181233 | 18 | 207 | 1.6 | 6.4 | 0.00 | 0.00 | 0.00 | 52 | 1007.4 |
| 20260502180733 | 18 | 202 | 3.2 | 6.4 | 0.00 | 0.00 | 0.00 | 50 | 1007.3 |
| 20260502180457 | 18 | 196 | 3.2 | 4.8 | 0.00 | 0.00 | 0.00 | 49 | 1007.3 |
| 20260502170232 | 22 | 204 | 3.2 | 8.0 | 0.00 | 0.00 | 0.00 | 41 | 1007.4 |
| 20260502164232 | 23 | 274 | 17.7 | 41.8 | 0.00 | 0.00 | 0.00 | 34 | 1007.4 |
| 20260502163731 | 23 | 331 | 12.9 | 20.9 | 0.00 | 0.00 | 0.00 | 34 | 1007.5 |
| 20260502163231 | 23 | 303 | 9.7 | 24.1 | 0.00 | 0.00 | 0.00 | 34 | 1007.5 |
| 20260502162952 | 23 | 275 | 8.0 | 20.9 | 0.00 | 0.00 | 0.00 | 35 | 1007.6 |
| 20260502162450 | 22 | 230 | 11.3 | 20.9 | 0.00 | 0.00 | 0.00 | 37 | 1007.7 |
| 20260502161731 | 22 | 271 | 4.8 | 9.7 | 0.00 | 0.00 | 0.00 | 41 | 1007.8 |
| 20260502161231 | 22 | 230 | 6.4 | 14.5 | 0.00 | 0.00 | 0.00 | 41 | 1007.7 |
| 20260502160730 | 22 | 204 | 4.8 | 14.5 | 0.00 | 0.00 | 0.00 | 39 | 1007.9 |
| 20260502160455 | 22 | 234 | 3.2 | 14.5 | 0.00 | 0.00 | 0.00 | 40 | 1007.9 |
| 20260502151728 | 22 | 238 | 8.0 | 19.3 | 0.00 | 0.00 | 0.00 | 39 | 1008.6 |
| 20260502151228 | 22 | 240 | 6.4 | 19.3 | 0.00 | 0.00 | 0.00 | 39 | 1008.6 |
| 20260502150728 | 22 | 238 | 9.7 | 16.1 | 0.00 | 0.00 | 0.00 | 39 | 1008.8 |
| 20260502150227 | 22 | 234 | 6.4 | 14.5 | 0.00 | 0.00 | 0.00 | 39 | 1008.8 |
| 20260502130727 | 22 | 244 | 8.0 | 20.9 | 0.00 | 0.00 | 0.00 | 40 | 1010.1 |
| 20260502130225 | 22 | 252 | 12.9 | 20.9 | 0.00 | 0.00 | 0.00 | 41 | 1010.2 |
| 20260502123724 | 23 | 176 | 14.5 | 29.0 | 0.00 | 0.00 | 0.00 | 36 | 1010.5 |
| 20260502123225 | 23 | 224 | 12.9 | 29.0 | 0.00 | 0.00 | 0.00 | 36 | 1010.5 |
| 20260502122724 | 22 | 138 | 9.7 | 24.1 | 0.00 | 0.00 | 0.00 | 36 | 1010.6 |
| 20260502122224 | 22 | 281 | 16.1 | 27.4 | 0.00 | 0.00 | 0.00 | 36 | 1010.8 |
| 20260502121724 | 22 | 283 | 17.7 | 27.4 | 0.00 | 0.00 | 0.00 | 36 | 1010.7 |
| 20260502121224 | 22 | 295 | 9.7 | 33.8 | 0.00 | 0.00 | 0.00 | 35 | 1010.8 |
| 20260502120724 | 22 | 320 | 11.3 | 33.8 | 0.00 | 0.00 | 0.00 | 35 | 1010.9 |
| 20260502120223 | 22 | 326 | 14.5 | 24.1 | 0.00 | 0.00 | 0.00 | 35 | 1010.8 |
| 20260502115725 | 22 | 247 | 14.5 | 41.8 | 0.00 | 0.00 | 0.00 | 36 | 1011.0 |
| 20260502115223 | 22 | 303 | 17.7 | 41.8 | 0.00 | 0.00 | 0.00 | 36 | 1011.1 |
| 20260502114722 | 22 | 323 | 22.5 | 30.6 | 0.00 | 0.00 | 0.00 | 35 | 1011.2 |
| 20260502114440 | 22 | 283 | 12.9 | 24.1 | 0.00 | 0.00 | 0.00 | 36 | 1011.3 |
| 20260502113942 | 22 | 286 | 11.3 | 24.1 | 0.00 | 0.00 | 0.00 | 36 | 1011.3 |
| 20260502113446 | 22 | 258 | 16.1 | 25.7 | 0.00 | 0.00 | 0.00 | 36 | 1011.3 |
| 20260502112722 | 22 | 276 | 9.7 | 30.6 | 0.00 | 0.00 | 0.00 | 36 | 1011.4 |
| 20260502112448 | 21 | 262 | 19.3 | 32.2 | 0.00 | 0.00 | 0.00 | 37 | 1011.5 |
| 20260502111722 | 21 | 269 | 22.5 | 32.2 | 0.00 | 0.00 | 0.00 | 36 | 1011.5 |
| 20260502111221 | 21 | 276 | 17.7 | 29.0 | 0.00 | 0.00 | 0.00 | 37 | 1011.6 |
| 20260502110722 | 21 | 279 | 17.7 | 29.0 | 0.00 | 0.00 | 0.00 | 36 | 1011.7 |
| 20260502110222 | 21 | 285 | 20.9 | 29.0 | 0.00 | 0.00 | 0.00 | 37 | 1011.8 |
| 20260502105722 | 21 | 268 | 17.7 | 27.4 | 0.00 | 0.00 | 0.00 | 36 | 1011.8 |
| 20260502105222 | 22 | 244 | 11.3 | 29.0 | 0.00 | 0.00 | 0.00 | 37 | 1011.9 |
| 20260502104721 | 21 | 285 | 16.1 | 29.0 | 0.00 | 0.00 | 0.00 | 37 | 1012.0 |
| 20260502104221 | 21 | 285 | 17.7 | 25.7 | 0.00 | 0.00 | 0.00 | 38 | 1012.0 |
| 20260502103721 | 21 | 258 | 16.1 | 25.7 | 0.00 | 0.00 | 0.00 | 37 | 1012.0 |
| 20260502103448 | 21 | 313 | 14.5 | 32.2 | 0.00 | 0.00 | 0.00 | 38 | 1012.1 |
| 20260502102720 | 20 | 310 | 20.9 | 32.2 | 0.00 | 0.00 | 0.00 | 37 | 1012.2 |
| 20260502102220 | 21 | 289 | 16.1 | 25.7 | 0.00 | 0.00 | 0.00 | 37 | 1012.2 |
| 20260502101720 | 20 | 279 | 16.1 | 27.4 | 0.00 | 0.00 | 0.00 | 37 | 1012.2 |
| 20260502101439 | 20 | 296 | 8.0 | 27.4 | 0.00 | 0.00 | 0.00 | 37 | 1012.3 |
| 20260502100720 | 20 | 283 | 12.9 | 33.8 | 0.00 | 0.00 | 0.00 | 38 | 1012.3 |
| 20260502100220 | 20 | 275 | 11.3 | 33.8 | 0.00 | 0.00 | 0.00 | 38 | 1012.5 |
| 20260502091219 | 19 | 234 | 9.7 | 27.4 | 0.00 | 0.00 | 0.00 | 37 | 1012.9 |
| 20260502090719 | 20 | 290 | 19.3 | 25.7 | 0.00 | 0.00 | 0.00 | 37 | 1013.0 |
| 20260502090219 | 19 | 257 | 12.9 | 22.5 | 0.00 | 0.00 | 0.00 | 36 | 1013.1 |
| 20260502071216 | 17 | 283 | 16.1 | 29.0 | 0.00 | 0.00 | 0.00 | 41 | 1013.8 |
| 20260502070716 | 17 | 296 | 11.3 | 29.0 | 0.00 | 0.00 | 0.00 | 41 | 1013.8 |
| 20260502070216 | 16 | 316 | 11.3 | 24.1 | 0.00 | 0.00 | 0.00 | 41 | 1013.7 |
| 20260502065935 | 16 | 279 | 9.7 | 29.0 | 0.00 | 0.00 | 0.00 | 41 | 1013.8 |
| 20260502065216 | 16 | 303 | 14.5 | 29.0 | 0.00 | 0.00 | 0.00 | 41 | 1013.8 |
| 20260502064936 | 16 | 274 | 11.3 | 38.6 | 0.00 | 0.00 | 0.00 | 41 | 1013.9 |
| 20260502064216 | 16 | 274 | 20.9 | 38.6 | 0.00 | 0.00 | 0.00 | 41 | 1013.9 |
| 20260502063715 | 16 | 237 | 11.3 | 27.4 | 0.00 | 0.00 | 0.00 | 41 | 1014.0 |
| 20260502063216 | 16 | 276 | 12.9 | 30.6 | 0.00 | 0.00 | 0.00 | 42 | 1014.0 |
| 20260502062716 | 16 | 276 | 14.5 | 30.6 | 0.00 | 0.00 | 0.00 | 42 | 1014.0 |
| 20260502062656 | 16 | 268 | 22.5 | 30.6 | 0.00 | 0.00 | 0.00 | 42 | 1014.2 |
| 20260502061934 | 15 | 251 | 12.9 | 29.0 | 0.00 | 0.00 | 0.00 | 43 | 1014.1 |
| 20260502061216 | 15 | 300 | 19.3 | 27.4 | 0.00 | 0.00 | 0.00 | 44 | 1014.1 |
| 20260502060715 | 15 | 289 | 11.3 | 37.0 | 0.00 | 0.00 | 0.00 | 44 | 1014.2 |
| 20260502060215 | 15 | 303 | 14.5 | 37.0 | 0.00 | 0.00 | 0.00 | 45 | 1014.1 |
| 20260502055715 | 15 | 298 | 14.5 | 27.4 | 0.00 | 0.00 | 0.00 | 45 | 1014.1 |
| 20260502055215 | 15 | 298 | 17.7 | 27.4 | 0.00 | 0.00 | 0.00 | 46 | 1014.3 |
| 20260502054715 | 14 | 254 | 16.1 | 22.5 | 0.00 | 0.00 | 0.00 | 47 | 1014.3 |
| 20260502054435 | 14 | 272 | 11.3 | 24.1 | 0.00 | 0.00 | 0.00 | 47 | 1014.3 |
| 20260502053715 | 14 | 261 | 12.9 | 27.4 | 0.00 | 0.00 | 0.00 | 47 | 1014.4 |
| 20260502053214 | 14 | 293 | 19.3 | 27.4 | 0.00 | 0.00 | 0.00 | 48 | 1014.3 |
| 20260502052715 | 13 | 298 | 9.7 | 20.9 | 0.00 | 0.00 | 0.00 | 50 | 1014.3 |
| 20260502052214 | 13 | 334 | 11.3 | 24.1 | 0.00 | 0.00 | 0.00 | 51 | 1014.3 |
| 20260502051715 | 13 | 290 | 12.9 | 24.1 | 0.00 | 0.00 | 0.00 | 52 | 1014.3 |
| 20260502051214 | 13 | 320 | 17.7 | 22.5 | 0.00 | 0.00 | 0.00 | 52 | 1014.3 |
| 20260502050939 | 13 | 296 | 14.5 | 22.5 | 0.00 | 0.00 | 0.00 | 54 | 1014.4 |
| 20260502050215 | 13 | 283 | 11.3 | 22.5 | 0.00 | 0.00 | 0.00 | 55 | 1014.4 |
| 20260502045714 | 12 | 288 | 9.7 | 16.1 | 0.00 | 0.00 | 0.00 | 56 | 1014.4 |
| 20260502045214 | 12 | 285 | 11.3 | 16.1 | 0.00 | 0.00 | 0.00 | 56 | 1014.4 |
| 20260502044714 | 12 | 293 | 8.0 | 19.3 | 0.00 | 0.00 | 0.00 | 57 | 1014.5 |
| 20260502044214 | 12 | 309 | 11.3 | 19.3 | 0.00 | 0.00 | 0.00 | 58 | 1014.5 |
| 20260502043935 | 12 | 296 | 8.0 | 19.3 | 0.00 | 0.00 | 0.00 | 58 | 1014.6 |
| 20260502043433 | 12 | 289 | 8.0 | 19.3 | 0.00 | 0.00 | 0.00 | 59 | 1014.6 |
| 20260502042713 | 12 | 298 | 8.0 | 16.1 | 0.00 | 0.00 | 0.00 | 59 | 1014.7 |
| 20260502042213 | 12 | 271 | 9.7 | 16.1 | 0.00 | 0.00 | 0.00 | 59 | 1014.7 |
| 20260502041713 | 12 | 290 | 8.0 | 9.7 | 0.00 | 0.00 | 0.00 | 59 | 1014.6 |
| 20260502041431 | 12 | 275 | 4.8 | 14.5 | 0.00 | 0.00 | 0.00 | 59 | 1014.7 |
| 20260502040712 | 12 | 255 | 6.4 | 16.1 | 0.00 | 0.00 | 0.00 | 59 | 1014.6 |
| 20260502040434 | 12 | 282 | 6.4 | 16.1 | 0.00 | 0.00 | 0.00 | 59 | 1014.7 |
| 20260502035931 | 12 | 266 | 9.7 | 14.5 | 0.00 | 0.00 | 0.00 | 59 | 1014.7 |
| 20260502035212 | 12 | 262 | 6.4 | 17.7 | 0.00 | 0.00 | 0.00 | 58 | 1014.7 |
| 20260502034929 | 12 | 285 | 4.8 | 17.7 | 0.00 | 0.00 | 0.00 | 58 | 1014.8 |
| 20260502034213 | 12 | 265 | 3.2 | 16.1 | 0.00 | 0.00 | 0.00 | 58 | 1014.8 |
| 20260502033712 | 12 | 293 | 9.7 | 16.1 | 0.00 | 0.00 | 0.00 | 58 | 1014.8 |
| 20260502033212 | 12 | 268 | 8.0 | 11.3 | 0.00 | 0.00 | 0.00 | 58 | 1014.9 |
| 20260502032712 | 12 | 276 | 6.4 | 14.5 | 0.00 | 0.00 | 0.00 | 58 | 1014.9 |
| 20260502032212 | 12 | 302 | 8.0 | 17.7 | 0.00 | 0.00 | 0.00 | 58 | 1015.0 |
| 20260502031712 | 12 | 289 | 6.4 | 17.7 | 0.00 | 0.00 | 0.00 | 58 | 1015.0 |
| 20260502031211 | 12 | 288 | 11.3 | 20.9 | 0.00 | 0.00 | 0.00 | 58 | 1015.1 |
| 20260502030712 | 12 | 274 | 9.7 | 20.9 | 0.00 | 0.00 | 0.00 | 58 | 1015.0 |
| 20260502030211 | 12 | 283 | 8.0 | 16.1 | 0.00 | 0.00 | 0.00 | 57 | 1015.0 |
| 20260502025711 | 12 | 269 | 8.0 | 17.7 | 0.00 | 0.00 | 0.00 | 57 | 1015.1 |
| 20260502025211 | 12 | 289 | 9.7 | 17.7 | 0.00 | 0.00 | 0.00 | 57 | 1015.2 |
| 20260502024711 | 12 | 274 | 8.0 | 17.7 | 0.00 | 0.00 | 0.00 | 56 | 1015.2 |
| 20260502024211 | 12 | 282 | 11.3 | 17.7 | 0.00 | 0.00 | 0.00 | 56 | 1015.3 |